Weather History for KAPN - February, 2013

Change the Weather History Date:

Friday, February 8, 2013

  Actual Average Record
Temperature  
Mean Temperature 16 °F 19 °F  
Max Temperature 27 °F 28 °F 50 °F (1991)
Min Temperature 4 °F 11 °F -34 °F (1934)
Degree Days  
Heating Degree Days 49 46  
Month to date heating degree days 416 368  
Since 1 July heating degree days 4483 4850  
Moisture  
Dew Point 14 °F    
Average Humidity 83    
Maximum Humidity 92    
Minimum Humidity 73    
Precipitation  
Precipitation 0.14 in 0.04 in 0.55 in (1966)
Month to date precipitation 0.46 0.34  
Year to date precipitation 3.23 2.00  
Snow  
Snow 1.80 in 0.60 in 6.80 in (1987)
Month to date snowfall 6.6 5.1  
Since 1 July snowfall 27.6 53.7  
Snow Depth 7.00 in    
Sea Level Pressure  
Sea Level Pressure 30.19 in    
Wind  
Wind Speed 12 mph (North)    
Max Wind Speed 21 mph    
Max Gust Speed 25 mph    
Visibility 5 miles    
Events Snow    
T = Trace of Precipitation, MM = Missing Value Source: NWS Daily Summary

Daily Weather History Graph

Daily Weather History Graph

Search for Another Location

Airport or City:

Trip Planner

Search our weather history database for the weather conditions in past years. The results will help you decide how hot, cold, wet, or windy it might be!

Date:

Astronomy

Feb. 08, 2013 Rise Set
Actual Time 7:45 AM EST 5:52 PM EST
Civil Twilight 7:14 AM EST 6:23 PM EST
Nautical Twilight 6:39 AM EST 6:58 PM EST
Astronomical Twilight 6:05 AM EST 7:32 PM EST
Moon 6:15 AM EST (2/8) 4:23 PM EST (2/8)
Length of Visible Light 11h 08m
Length of Day
10h 07m
Waning Crescent, 3% of the Moon is Illuminated
Feb 8
Waning Crescent
Feb 10
New
Feb 17
First Quarter
Feb 25
Full
Mar 4
Last Quarter

Hourly Weather History & Observations

Time (EST) Temp. Windchill Dew Point Humidity Pressure Visibility Wind Dir Wind Speed Gust Speed Precip Events Conditions
12:54 AM 25.0 °F 13.1 °F 21.9 °F 88% 30.09 in 1.0 mi NE 13.8 mph - 0.03 in Snow Light Snow
1:01 AM 24.8 °F 12.9 °F 21.2 °F 86% 30.06 in 1.2 mi NE 13.8 mph 23.0 mph 0.00 in Snow Light Snow
1:54 AM 23.0 °F 10.1 °F 19.9 °F 88% 30.09 in 1.8 mi NE 15.0 mph - 0.00 in Snow Light Snow
2:18 AM 23.0 °F 10.6 °F 19.4 °F 86% 30.06 in 1.8 mi NE 13.8 mph 23.0 mph 0.00 in Snow Light Snow
2:54 AM 21.9 °F 9.2 °F 18.0 °F 85% 30.10 in 1.5 mi NE 13.8 mph 25.3 mph 0.01 in Snow Light Snow
3:05 AM 21.2 °F 6.8 °F 17.6 °F 86% 30.06 in 1.5 mi NE 17.3 mph - 0.00 in Snow Light Snow
3:13 AM 21.2 °F 6.4 °F 17.6 °F 86% 30.07 in 1.8 mi NE 18.4 mph - 0.00 in Snow Light Snow
3:54 AM 19.9 °F 5.7 °F 17.1 °F 89% 30.09 in 1.5 mi NNE 16.1 mph - 0.01 in Snow Light Snow
4:15 AM 19.4 °F 4.1 °F 17.6 °F 93% 30.06 in 2.0 mi NNE 18.4 mph 21.9 mph 0.00 in Snow Light Snow
4:46 AM 19.4 °F 4.5 °F 15.8 °F 86% 30.08 in 3.0 mi NNE 17.3 mph - 0.00 in Snow Light Snow
4:54 AM 19.0 °F 4.0 °F 15.1 °F 85% 30.11 in 3.0 mi NNE 17.3 mph - 0.00 in Snow Light Snow
5:02 AM 19.4 °F 5.0 °F 15.8 °F 86% 30.08 in 2.5 mi NNE 16.1 mph - 0.00 in Snow Light Snow
5:28 AM 17.6 °F 3.7 °F 15.8 °F 93% 30.08 in 1.5 mi NNE 13.8 mph - 0.00 in Snow Light Snow
5:54 AM 18.0 °F 4.8 °F 15.1 °F 88% 30.12 in 1.5 mi NNE 12.7 mph - 0.00 in Snow Light Snow
6:07 AM 17.6 °F 3.7 °F 14.0 °F 86% 30.09 in 1.8 mi NNE 13.8 mph 23.0 mph 0.01 in Snow Light Snow
6:13 AM 17.6 °F 2.7 °F 14.0 °F 86% 30.10 in 2.0 mi NNE 16.1 mph 23.0 mph 0.01 in Snow Light Snow
6:21 AM 17.6 °F 2.7 °F 14.0 °F 86% 30.10 in 2.0 mi North 16.1 mph - 0.01 in Snow Light Snow
6:42 AM 17.6 °F 3.2 °F 15.8 °F 93% 30.10 in 1.5 mi North 15.0 mph - 0.01 in Snow Light Snow
6:54 AM 18.0 °F 2.6 °F 14.0 °F 84% 30.15 in 1.2 mi North 17.3 mph - 0.01 in Snow Light Snow
7:11 AM 17.6 °F 1.7 °F 14.0 °F 86% 30.12 in 2.0 mi North 18.4 mph - 0.00 in Snow Light Snow
7:26 AM 17.6 °F 2.7 °F 14.0 °F 86% 30.12 in 3.0 mi North 16.1 mph - 0.00 in Snow Light Snow
7:38 AM 17.6 °F 1.7 °F 14.0 °F 86% 30.13 in 2.5 mi North 18.4 mph - 0.00 in Snow Light Snow
7:49 AM 17.6 °F 1.7 °F 14.0 °F 86% 30.13 in 5.0 mi North 18.4 mph - 0.00 in Snow Light Snow
7:54 AM 18.0 °F 2.2 °F 14.0 °F 84% 30.17 in 7.0 mi North 18.4 mph - 0.00 in Snow Light Snow
8:00 AM 17.6 °F 3.2 °F 14.0 °F 86% 30.14 in 9.0 mi North 15.0 mph - N/A   Overcast
8:54 AM 19.0 °F 5.0 °F 15.1 °F 85% 30.19 in 9.0 mi North 15.0 mph - N/A   Overcast
9:54 AM 19.9 °F 5.7 °F 16.0 °F 85% 30.21 in 10.0 mi North 16.1 mph - N/A   Overcast
10:54 AM 19.9 °F 5.7 °F 16.0 °F 85% 30.23 in 5.0 mi North 16.1 mph - 0.00 in Snow Light Snow
11:38 AM 19.4 °F 4.5 °F 15.8 °F 86% 30.21 in 2.5 mi North 17.3 mph - 0.00 in Snow Light Snow
11:54 AM 19.0 °F 5.0 °F 15.1 °F 85% 30.25 in 2.5 mi North 15.0 mph - 0.00 in Snow Light Snow
12:48 PM 19.4 °F 5.5 °F 14.0 °F 80% 30.21 in 3.0 mi North 15.0 mph - 0.00 in Snow Light Snow
12:54 PM 19.9 °F 6.2 °F 14.0 °F 78% 30.25 in 4.0 mi North 15.0 mph - 0.00 in Snow Light Snow
1:54 PM 19.9 °F 7.3 °F 15.1 °F 81% 30.25 in 7.0 mi North 12.7 mph - 0.00 in   Overcast
2:47 PM 19.4 °F 3.6 °F 14.0 °F 80% 30.22 in 10.0 mi North 19.6 mph - N/A   Overcast
2:54 PM 19.9 °F 5.7 °F 14.0 °F 78% 30.26 in 10.0 mi North 16.1 mph - N/A   Mostly Cloudy
3:54 PM 19.9 °F 6.2 °F 12.9 °F 74% 30.28 in 10.0 mi NNW 15.0 mph - N/A   Mostly Cloudy
4:54 PM 19.9 °F 7.9 °F 12.0 °F 71% 30.30 in 10.0 mi NNW 11.5 mph 20.7 mph N/A   Mostly Cloudy
5:21 PM 19.4 °F 8.6 °F 12.2 °F 74% 30.27 in 10.0 mi NW 9.2 mph - N/A   Scattered Clouds
5:54 PM 19.0 °F 10.0 °F 12.0 °F 74% 30.32 in 10.0 mi NW 6.9 mph - N/A   Partly Cloudy
6:54 PM 17.1 °F 8.7 °F 10.9 °F 77% 30.35 in 10.0 mi NW 5.8 mph - N/A   Clear
7:54 PM 15.1 °F 7.7 °F 10.0 °F 80% 30.37 in 10.0 mi NW 4.6 mph - N/A   Clear
8:54 PM 10.9 °F 4.7 °F 7.0 °F 84% 30.36 in 10.0 mi NNW 3.5 mph - N/A   Clear
9:54 PM 6.1 °F - 1.9 °F 83% 30.37 in 10.0 mi Calm Calm - N/A   Clear
10:11 PM 8.6 °F 0.1 °F 5.0 °F 85% 30.33 in 10.0 mi WNW 4.6 mph - N/A   Mostly Cloudy
10:54 PM 5.0 °F - 1.9 °F 87% 30.40 in 10.0 mi Calm Calm - N/A   Overcast
11:54 PM 9.0 °F - 6.1 °F 88% 30.40 in 9.0 mi Calm Calm - N/A   Overcast